Location: B?hrab?se
(27.7887°N, 85.8986°E)
Time: 22:17:28
(UTC+00:00)

Daily predictions for brighter satellites

Satellite Brightness Start Highest point End
(mag) Time Altitude Azimuth Time Altitude Azimuth Time Altitude Azimuth
MOS 1 Rocket 4.3 12:28:29 10° NE 12:31:41 20° E 12:34:52 10° SE
GP-B 3.4 12:28:20 10° N 12:32:46 75° W 12:37:10 10° S
CZ-2C R/B 4.3 12:31:18 10° ENE 12:33:28 12° E 12:35:37 10° ESE
Meteor 1-21 4.3 12:29:41 10° N 12:35:12 59° E 12:40:42 10° SSE
Cosmos 2151 Rocket 4.2 12:37:42 10° SSE 12:41:41 33° E 12:45:43 10° NNE
ATLAS 5 CENTAUR R/B 1.8 12:40:38 10° SSW 12:41:41 13° S 12:42:59 10° SE
NOSS 3-4 (A) 3.6 12:38:43 10° S 12:44:14 45° ESE 12:49:53 10° NE
NOSS 3-4 (C) 3.6 12:38:51 10° S 12:44:21 44° ESE 12:49:58 10° NE
H-2A R/B 3.1 12:43:09 10° ESE 12:47:00 23° ENE 12:50:54 10° NNE
Cosmos 2034 Rocket 4.3 12:45:04 10° SSE 12:51:02 44° E 12:56:59 10° NNE
Cosmos 1844 Rocket 2.8 12:47:26 10° SSW 12:52:58 81° WNW 12:58:34 10° NNE
Cosmos 1975 Rocket 3.0 12:49:37 10° N 12:53:57 87° E 12:58:16 10° S
Cosmos 2278 Rocket 3.6 12:53:43 10° SE 12:56:44 15° E 12:57:18 15° E
Cosmos 1844 3.7 12:53:58 10° SSW 12:59:42 90° E 13:05:23 10° NNE
Meteor 1-12 Rocket 4.4 12:54:16 10° S 13:00:12 88° W 13:06:03 10° N
Cosmos 1805 4.3 12:58:24 10° SE 13:01:29 23° E 13:04:35 10° NE
ATLAS 2AS CENTAUR R/B 3.0 12:58:31 10° SSW 13:06:10 65° ESE 13:14:02 10° NE
Cosmos 1939 Rocket 4.3 13:05:04 10° S 13:08:58 43° W 13:12:55 10° NNW
CENTAUR R/B 4.3 13:02:22 10° N 13:09:02 25° NE 13:13:05 18° E
GPS 2-17 Rocket1 4.2 13:05:25 10° WSW 13:09:24 30° S 13:11:50 19° SE
CSL-04 Debris 4.1 13:14:17 10° SSE 13:19:37 69° ENE 13:24:58 10° N
CSL-04 Rocket 3.6 13:16:29 10° SSE 13:21:49 68° ENE 13:27:16 10° N
DELTA 2 R/B (1) 3.9 13:19:19 10° WNW 13:24:46 63° SW 13:28:18 22° SE
Cosmos 1707 3.0 13:21:10 10° NNW 13:24:57 68° W 13:28:45 10° S
Okean 1 Rocket 3.2 13:21:49 10° SSE 13:26:07 49° E 13:30:27 10° NNE
CZ-2C R/B 1.3 13:23:35 10° WNW 13:27:14 49° NNE 13:27:54 42° NE
GOES 2 Rocket 2.8 13:27:07 10° W 13:31:25 82° N 13:32:37 45° E
Cosmos 2285 Rocket 4.3 13:31:14 10° SSW 13:37:28 67° WNW 13:43:46 10° N
USA 238 DEB 4.1 13:30:30 10° NNW 13:37:37 50° ENE 13:40:45 33° ESE
USA 238 4.1 13:30:37 10° NNW 13:37:44 50° ENE 13:40:49 33° ESE
YAOGAN 1 3.8 13:33:52 10° S 13:37:56 42° W 13:42:02 10° NNW
Gbstr 26 Del rocket 4.2 13:34:55 10° SSW 13:41:00 55° SE 13:44:44 28° ENE
Cosmos 1766 3.6 13:43:36 49° NNE 13:43:36 49° NNE 13:46:38 10° N
CZ-2C R/B 3.7 13:40:45 10° S 13:45:49 57° W 13:51:13 10° NNW
Cosmos 1025 Rocket 3.7 13:44:58 10° NNW 13:49:16 54° W 13:53:32 10° S
Cosmos 1092 Rocket 4.1 13:43:30 10° N 13:49:28 48° E 13:50:10 46° ESE
Cosmos 1536 Rocket 4.0 13:53:53 10° NNW 13:58:17 61° W 14:00:44 25° SSW
CZ-4 R/B 4.3 13:56:10 10° SW 13:59:00 18° W 14:01:50 10° NW
ARGOS 3.1 13:56:53 25° S 14:00:05 80° WSW 14:05:28 10° NNW
Centaur D-1AR AC-40 3.0 13:50:17 10° W 14:02:16 43° SSW 14:03:19 38° S
NOSS 3-2 (A) 4.1 13:54:26 10° NNW 14:02:32 82° ENE 14:06:30 37° SSE
IUS-26 SRM-1 4.3 13:59:38 10° WSW 14:03:17 28° SW 14:03:17 28° SW
CZ-2C R/B 3.1 14:08:27 10° N 14:13:58 62° WNW 14:19:28 10° SSW
USA 234 3.1 14:15:51 49° NE 14:17:50 87° SE 14:24:23 10° SW
BREEZE-M DEB (TANK) 4.5 14:03:04 10° NW 14:19:20 59° NNE 14:20:01 56° NE
Ariane Rocket 3.8 14:27:28 45° NNW 14:27:28 45° NNW 14:30:59 10° NNW
H-2A R/B 3.8 14:22:04 10° SSW 14:26:13 27° W 14:30:28 10° NW
BREEZE-M DEB (TANK) 4.3 14:26:56 10° NW 14:31:48 62° NE 14:32:24 61° ENE
Milstar 3 Cent rocket 2.7 14:29:18 10° W 14:34:58 58° W 14:34:58 58° W
Cosmos 2278 Rocket 3.0 14:34:48 10° SW 14:46:48 - N 14:39:29 47° W
NOSS 3-2 (C) 4.0 14:32:32 10° NNW 14:40:41 89° SW 14:41:09 82° SSE
CENTAUR R/B 3.3 14:51:52 10° NNW 15:00:19 72° WSW 15:00:19 72° WSW
ATLAS 3B R/B 4.4 15:05:28 10° NNW 15:08:04 23° N 15:08:04 23° N
Cosmos 2360 Rocket 3.3 21:27:44 41° ENE 21:27:44 41° ENE 21:31:57 10° NNE
H-2A R/B 4.1 21:37:43 10° SE 21:41:21 26° ENE 21:45:03 10° NNE
Cosmos 2322 Rocket 3.6 21:48:47 28° N 21:48:47 28° N 21:51:31 10° N
Cosmos 2263 Rocket 3.3 21:51:33 34° SSE 21:51:33 34° SSE 21:54:42 10° SSE
CZ-2C R/B 3.2 21:47:04 10° NNE 21:52:07 51° E 21:53:07 45° SE
Cosmos 1727 Rocket 4.0 21:55:02 69° NNW 21:55:02 69° NNW 22:00:38 10° N
Meteor 1-27 Rocket 3.7 21:57:36 81° N 21:57:36 81° N 22:03:13 10° N
SL-16 R/B 3.9 22:00:58 20° NNW 22:00:58 20° NNW 22:03:00 10° N
Meteor 1-11 Rocket 4.2 21:53:54 10° N 21:59:30 59° E 22:04:57 10° SSE
Cosmos 1898 Rocket 3.9 21:56:32 10° N 22:01:46 61° ENE 22:06:59 10° SSE
Cosmos 2237 4.4 22:07:31 57° NNW 22:07:31 57° NNW 22:12:24 10° NNE
ADEOS Rocket 4.4 22:05:22 10° SE 22:11:45 41° ENE 22:17:33 10° N
Skynet4D Del rocket 3.7 22:12:48 58° S 22:12:48 58° S 22:18:14 10° ESE
Cosmos 2219 Rocket 3.4 22:09:25 10° S 22:14:40 40° ESE 22:19:56 10° NE
Cosmos 841 Rocket 4.1 22:18:06 42° NNW 22:18:06 42° NNW 22:22:02 10° N
Hubble Space Telescope 2.1 22:18:25 30° SSE 22:18:25 30° SSE 22:21:51 10° E
Cosmos 2208 Rocket 4.0 22:20:19 61° WNW 22:20:19 61° WNW 22:25:18 10° N
Yuri Rocket 2.9 22:20:39 75° SSE 22:20:39 75° SSE 22:25:21 10° E
Cosmos 1937 Rocket 3.8 22:16:28 10° N 22:21:35 66° ENE 22:26:40 10° SSE
Cosmos 1814 Rocket 4.0 22:22:47 58° WNW 22:22:47 58° WNW 22:27:50 10° N
CBERS 1 LM4 rocket 4.5 22:19:00 10° NNE 22:24:25 87° WNW 22:27:34 25° SSW
Cosmos 1437 Rocket 3.2 22:23:56 37° SSE 22:25:09 58° E 22:28:54 10° NNE
DELTA 4 R/B 3.9 22:18:26 30° W 22:27:24 67° SSW 22:32:32 10° ESE
X-37B 2.9 22:27:34 18° N 22:28:21 19° NNE 22:30:44 10° E
deb Chang Zheng 4 4.0 22:26:20 10° NNE 22:30:33 60° ESE 22:34:43 10° S
USA 32 3.9 22:28:16 10° N 22:33:27 65° W 22:38:38 10° S
COSMOS 2428 3.3 22:30:48 10° S 22:36:20 57° ESE 22:41:55 10° NNE
ATLAS 2AS CENTAUR R/B 3.9 22:31:29 10° NNW 22:38:17 43° ENE 22:44:33 10° SE
Cosmos 540 Rocket 4.5 22:39:17 28° NW 22:39:17 28° NW 22:42:58 10° N
SJ-6F 4.2 22:36:41 10° N 22:40:46 83° WNW 22:43:43 18° SSW
Cosmos 1536 2.8 22:38:37 10° NNW 22:42:36 56° W 22:46:34 10° S
FALCON 9 DEB 4.2 22:43:18 27° S 22:44:27 37° SE 22:47:22 10° ENE
Cosmos 2333 Rocket 2.2 22:39:36 10° SSW 22:45:21 89° WNW 22:51:09 10° NNE
Meteor 2-20 Rocket 4.4 22:41:03 10° S 22:47:13 88° E 22:53:21 10° N
Cosmos 2173 Rocket 3.9 22:41:21 10° N 22:47:42 79° W 22:54:03 10° S
Gbstr 26 Del rocket 4.3 22:40:02 10° NW 22:47:57 86° NE 22:54:39 10° SE
Meteor 2-20 4.4 22:42:59 10° SSW 22:49:01 62° W 22:55:05 10° N
Cosmos 2322 3.7 22:46:37 20° SW 22:50:27 58° WNW 22:56:02 10° N
ERS-2 2.0 22:49:14 10° S 22:52:52 70° WSW 22:56:31 10° NNW
METEOR-M 4.4 22:48:52 10° NNE 22:54:12 71° ESE 22:59:31 10° S
CZ-4B R/B 4.3 22:50:50 10° NNE 22:55:18 77° ESE 22:59:46 10° S
CZ-4B R/B 1.9 22:52:52 10° SSE 22:55:56 57° ENE 22:59:05 10° N
FALCON 9 DEB 3.3 22:56:44 24° SSW 22:58:22 61° SE 23:01:28 10° NE
ADEOS 3.5 22:53:40 10° N 22:58:48 61° WNW 23:03:55 10° SSW
OAO 3 Rocket 3.2 22:56:45 28° WSW 22:59:22 81° NNW 23:04:21 10° ENE
Landsat 5 4.4 22:56:29 10° SSW 23:00:23 29° W 23:04:17 10° NW
Cosmos 1733 Rocket 3.2 22:57:32 10° NNW 23:01:42 47° W 23:05:49 10° SSW
Cosmos 2242 Rocket 3.4 22:57:41 10° SSW 23:02:02 70° W 23:06:26 10° N
Delta 2 Rocket 2.6 23:04:59 28° WSW 23:06:35 88° NNW 23:09:56 10° ENE
Intercosmos 25 3.8 23:02:32 10° SSW 23:07:01 39° W 23:10:19 10° NNW
Cosmos 1743 2.5 23:06:36 10° N 23:10:23 70° W 23:14:11 10° S
Cosmos 2360 Rocket 3.6 23:09:33 17° WNW 23:10:42 18° WNW 23:14:26 10° NNW
Cosmos 1544 3.3 23:07:47 10° N 23:11:21 71° E 23:14:55 10° SSE
Meteor 1-19 Rocket 4.1 23:09:26 10° SSW 23:14:49 67° W 23:20:22 10° N
Meteor 1-18 Rocket 4.2 23:09:46 10° SSW 23:15:13 61° W 23:20:43 10° N
Meteor PRIRODA 4.2 23:12:57 10° NNE 23:16:32 61° E 23:20:06 10° S
H-2A R/B 3.4 23:14:10 10° SW 23:17:13 19° W 23:20:20 10° NW
FENGYUN 3A 3.8 23:13:08 10° N 23:18:23 52° WNW 23:23:36 10° SSW
SL-8 R/B 4.3 23:15:29 14° WNW 23:19:00 35° SW 23:23:21 10° SSE
Cosmos 2016 Rocket 3.9 23:13:20 10° NNW 23:19:20 64° W 23:25:21 10° S
Cosmos 1242 Rocket 4.1 23:17:53 10° SSE 23:21:19 40° E 23:24:45 10° NNE
ALOS 2.7 23:20:37 10° N 23:24:57 39° WNW 23:29:16 10° SW
Cosmos 2061 Rocket 4.1 23:18:58 10° NNW 23:25:15 59° W 23:31:30 10° S
SAR-Lupe-4 3.6 23:23:08 10° S 23:26:38 58° WSW 23:30:11 10° NNW
Cosmos 2233 Rocket 4.3 23:23:06 10° N 23:29:14 75° E 23:35:22 10° S
CZ-2C R/B 4.2 23:27:10 10° NW 23:29:49 14° WNW 23:32:27 10° W
Cosmos 372 Rocket 4.1 23:28:20 10° NNW 23:33:15 49° WSW 23:38:08 10° S
Atlas Centaur 2 4.1 23:32:19 10° S 23:34:57 15° SE 23:37:53 10° ESE
Okean 3 3.9 23:30:49 10° S 23:35:05 69° E 23:39:21 10° N
Cosmos 1689 Rocket 2.0 23:32:34 10° SSE 23:35:30 89° ENE 23:38:28 10° N
Cosmos 1844 Rocket 2.7 23:31:37 10° NNW 23:37:11 61° WSW 23:42:44 10° S
FALCON 9 DEB 3.7 23:36:02 10° WSW 23:38:57 34° NW 23:41:53 10° NNE
Cosmos 1725 Rocket 4.2 23:35:56 10° NNW 23:41:50 49° W 23:47:44 10° SSW
Cosmos 1975 2.7 23:37:53 10° N 23:41:52 70° W 23:45:48 10° S
Cosmos 1844 3.7 23:39:46 10° NNW 23:45:15 65° WSW 23:50:45 10° S
Delta 142 4.2 23:41:30 10° WSW 23:48:02 83° S 23:53:01 10° E
